Starlink 3182

operational
NORAD ID: 51469 Int'l Des: 2022-010 Owner: SPXS Country: US Constellation: starlink
LEOCIRCULAR

About Starlink 3182

Description loading...

Live Position

Loading 3D Globe...

Upcoming Passes

Altitude History

Altitude vs Time

uPlot chart will show altitude changes over time

Two-Line Element Set

1 51469U 22010P 25303.26958935 -.00000278 00000-0 64631-6 0 9994
2 51469 53.2152 144.5993 0001475 84.1658 275.9502 15.08835318207134
Epoch: Oct 30, 2025 • Age: 18 hours

Current Status

Altitude 543.5 km
Velocity 7.59 km/s
Sub-Earth Point -12.85°S, 80.98°W
Launch Date Feb 3, 2022
Age 3.7 years
Type internet

Technical Details

Classification Payload
Mass 297.00 kg
Dry Mass 275.00 kg
Total Mass 297.00 kg
Length 0.20 m
Diameter 2.80 m
Span 9.00 m
Shape Box + pan
Manufacturer SPXS
Bus Type Starlink
Phase Status In Orbit
Owner/State SPXS/US

Large Constellations

Loading constellations...